This demonstration page uses our WeatherBlox Daily Observations layout. Learn more.

Left ArrowRight Arrow

38.88101, -77.10428

Hourly Observations for March 23, 2019

Temp ( °F °C ) Dew Point ( °F °C ) Humidity (%) Winds ( mph kmh ) Pressure ( in mb ) Visibility ( mi km ) Precip ( " mm )
12:52 am 00:52 Mostly Clear 41 5 25 -3.9 53 53 WNW 17 28 29.86 1011 10 16.0934 0 0
1:52 am 01:52 Mostly Clear 41 5 24 -4.4 51 51 WNW 21 33 29.88 1012 10 16.0934 0 0
2:52 am 02:52 Mostly Clear 40 4.4 22 -5.6 49 49 NW 16 26 29.88 1012 10 16.0934 0 0
3:52 am 03:52 Clear 39 3.9 22 -5.6 50 50 WNW 18 30 29.9 1013 10 16.0934 0 0
4:52 am 04:52 Clear 39 3.9 22 -5.6 50 50 WNW 16 26 29.92 1013 10 16.0934 0 0
5:52 am 05:52 Clear 38 3.3 22 -5.6 52 52 NW 15 24 29.96 1015 10 16.0934 0 0
6:52 am 06:52 Mostly Clear 37 2.8 21 -6.1 52 52 NW 14 22 30 1016 10 16.0934 0 0
7:52 am 07:52 Mostly Sunny 38 3.3 21 -6.1 51 51 WNW 14 22 30.03 1017 10 16.0934 0 0
8:52 am 08:52 Mostly Sunny 39 3.9 21 -6.1 48 48 WNW 20 31 30.06 1018 10 16.0934 0 0
9:52 am 09:52 Mostly Sunny 41 5 19 -7.2 41 41 WNW 20 31 30.1 1019 10 16.0934 0 0
10:52 am 10:52 Mostly Sunny 43 6.1 20 -6.7 40 40 W 17 28 30.13 1020 10 16.0934 0 0
11:52 am 11:52 Mostly Sunny 46 7.8 19 -7.2 34 34 NW 18 30 30.14 1021 10 16.0934 0 0
12:52 pm 12:52 Sunny 48 8.9 19 -7.2 32 32 NW 14 22 30.16 1021 10 16.0934 0 0
1:52 pm 13:52 Sunny 50 10 19 -7.2 29 29 WNW 20 31 30.16 1021 10 16.0934 0 0
2:52 pm 14:52 Sunny 51 10.6 18 -7.8 27 27 WNW 17 28 30.15 1021 10 16.0934 0 0
3:52 pm 15:52 Sunny 53 11.7 17 -8.3 24 24 W 20 31 30.15 1021 10 16.0934 0 0
4:52 pm 16:52 Sunny 54 12.2 17 -8.3 23 23 W 21 33 30.16 1021 10 16.0934 0 0
5:52 pm 17:52 Sunny 54 12.2 15 -9.4 21 21 NW 15 24 30.18 1022 10 16.0934 0 0
6:52 pm 18:52 Sunny 53 11.7 15 -9.4 22 22 NW 17 28 30.19 1023 10 16.0934 0 0
7:52 pm 19:52 Clear 51 10.6 14 -10 23 23 WNW 6 9 30.22 1023 10 16.0934 0 0
8:52 pm 20:52 Clear 50 10 15 -9.4 25 25 WNW 7 11 30.24 1024 10 16.0934 0 0
9:52 pm 21:52 Clear 49 9.4 15 -9.4 26 26 WNW 7 11 30.25 1025 10 16.0934 0 0
10:52 pm 22:52 Clear 48 8.9 15 -9.4 27 27 WNW 6 9 30.26 1025 10 16.0934 0 0
11:52 pm 23:52 Clear 45 7.2 18 -7.8 34 34 SW 6 9 30.26 1025 10 16.0934 0 0

Powered by AerisWeather